Weather History for Dansville, NY

Change the Weather History Date:

Monday, February 11, 2013

  Actual Average Record
Temperature  
Mean Temperature 46 °F -  
Max Temperature 55 °F 33 °F 59 °F (2009)
Min Temperature 37 °F 12 °F -10 °F (1962)
Degree Days  
Heating Degree Days 19    
Moisture  
Dew Point 30 °F    
Average Humidity 65    
Maximum Humidity 79    
Minimum Humidity 46    
Precipitation  
Precipitation 0.01 in - - ()
Sea Level Pressure  
Sea Level Pressure 29.77 in    
Wind  
Wind Speed 10 mph (SSE)    
Max Wind Speed 16 mph    
Max Gust Speed 29 mph    
Visibility 10 miles    
Events Rain    
Averages and records for this station are not official NWS values.
T = Trace of Precipitation, MM = Missing Value Source: NWS Daily Summary

Daily Weather History Graph

Daily Weather History Graph

Search for Another Location

Airport:

Trip Planner

Search our weather history database for the weather conditions in past years. The results will help you decide how hot, cold, wet, or windy it might be!

Date:

Astronomy

Feb. 11, 2013 Rise Set
Actual Time 7:12 AM EST 5:38 PM EST
Civil Twilight 6:43 AM EST 6:07 PM EST
Nautical Twilight 6:10 AM EST 6:40 PM EST
Astronomical Twilight 5:37 AM EST 7:13 PM EST
Moon 7:33 AM EST (2/11) 7:36 PM EST (2/11)
Length of Visible Light 11h 23m
Length of Day
10h 25m
Waxing Crescent, 3% of the Moon is Illuminated
Feb 11
Waxing Crescent
Feb 17
First Quarter
Feb 25
Full
Mar 4
Last Quarter
Mar 11
New

Hourly Weather History & Observations

Time (EST) Temp. Windchill Dew Point Humidity Pressure Visibility Wind Dir Wind Speed Gust Speed Precip Events Conditions
12:54 AM 39.0 °F 33.4 °F 19.9 °F 46% 30.02 in 10.0 mi SSE 8.1 mph - 0.00 in   Overcast
1:54 AM 39.0 °F 31.4 °F 19.9 °F 46% 29.95 in 10.0 mi SE 12.7 mph - N/A   Overcast
2:54 AM 39.0 °F 32.3 °F 19.9 °F 46% 29.93 in 10.0 mi SE 10.4 mph - N/A   Overcast
3:54 AM 39.0 °F 30.6 °F 19.9 °F 46% 29.88 in 10.0 mi ESE 15.0 mph - N/A   Overcast
4:54 AM 39.9 °F 33.4 °F 21.0 °F 47% 29.86 in 10.0 mi SE 10.4 mph 20.7 mph N/A   Overcast
5:54 AM 39.0 °F 30.6 °F 25.0 °F 57% 29.84 in 10.0 mi SE 15.0 mph 21.9 mph N/A   Overcast
6:54 AM 37.9 °F 29.6 °F 30.9 °F 76% 29.83 in 10.0 mi SE 13.8 mph 19.6 mph 0.00 in Rain Light Rain
7:36 AM 37.4 °F 30.3 °F 30.2 °F 75% 29.77 in 10.0 mi SE 10.4 mph - 0.00 in   Overcast
7:54 AM 39.0 °F 32.3 °F 32.0 °F 76% 29.81 in 10.0 mi SE 10.4 mph 20.7 mph 0.00 in   Overcast
8:54 AM 41.0 °F 35.2 °F 34.0 °F 76% 29.79 in 10.0 mi SE 9.2 mph - N/A   Overcast
9:54 AM 45.0 °F 39.3 °F 37.0 °F 74% 29.75 in 10.0 mi SSE 11.5 mph 19.6 mph N/A   Overcast
10:45 AM 46.4 °F 40.1 °F 39.2 °F 76% 29.70 in 10.0 mi SSE 15.0 mph - 0.00 in   Mostly Cloudy
10:54 AM 46.9 °F - 39.0 °F 74% 29.73 in 10.0 mi SSE 12.7 mph 20.7 mph 0.00 in   Partly Cloudy
11:54 AM 51.1 °F - 39.9 °F 66% 29.69 in 10.0 mi SSE 8.1 mph - N/A   Scattered Clouds
12:54 PM 53.1 °F - 39.9 °F 61% 29.64 in 10.0 mi South 8.1 mph 19.6 mph N/A   Partly Cloudy
1:54 PM 55.0 °F - 39.0 °F 55% 29.60 in 10.0 mi South 11.5 mph 20.7 mph N/A   Scattered Clouds
2:54 PM 42.1 °F 35.7 °F 35.1 °F 76% 29.66 in 7.0 mi West 11.5 mph 23.0 mph 0.00 in Rain Light Rain
3:54 PM 39.9 °F 36.7 °F 34.0 °F 79% 29.70 in 5.0 mi Variable 4.6 mph - 0.01 in Rain Light Rain
4:08 PM 41.0 °F 38.0 °F 33.8 °F 76% 29.66 in 10.0 mi Variable 4.6 mph - 0.00 in   Overcast
4:25 PM 39.2 °F 31.6 °F 30.2 °F 70% 29.68 in 10.0 mi WNW 12.7 mph 19.6 mph 0.00 in   Overcast
4:54 PM 39.0 °F 34.0 °F 28.9 °F 67% 29.74 in 9.0 mi Variable 6.9 mph - 0.00 in Rain Light Rain
5:54 PM 37.9 °F 33.5 °F 28.9 °F 70% 29.76 in 10.0 mi Variable 5.8 mph - 0.00 in   Overcast
6:54 PM 37.9 °F 32.1 °F 27.0 °F 65% 29.76 in 10.0 mi WNW 8.1 mph 23.0 mph 0.00 in   Overcast
7:54 PM 37.9 °F 34.4 °F 26.1 °F 62% 29.79 in 10.0 mi Variable 4.6 mph 17.3 mph N/A   Overcast
8:54 PM 37.9 °F - 25.0 °F 60% 29.79 in 10.0 mi Calm Calm - N/A   Overcast
9:54 PM 37.9 °F - 26.1 °F 62% 29.78 in 10.0 mi Calm Calm - N/A   Overcast
10:54 PM 37.0 °F 32.4 °F 25.0 °F 62% 29.78 in 10.0 mi Variable 5.8 mph - N/A   Overcast
11:54 PM 37.0 °F 27.7 °F 25.0 °F 62% 29.79 in 10.0 mi West 16.1 mph 28.8 mph N/A   Overcast